Weather History for Telluride, CO

Change the Weather History Date:

Thursday, August 21, 2014

  Actual Average Record
Temperature  
Mean Temperature 57 °F -  
Max Temperature 68 °F 67 °F 78 °F (2007)
Min Temperature 46 °F 46 °F 42 °F (2004)
Degree Days  
Heating Degree Days 8    
Growing Degree Days 7 (Base 50)    
Moisture  
Dew Point 41 °F    
Average Humidity 60    
Maximum Humidity 87    
Minimum Humidity 28    
Precipitation  
Precipitation 0.00 in - - ()
Sea Level Pressure  
Sea Level Pressure 30.39 in    
Wind  
Wind Speed 4 mph (SE)    
Max Wind Speed 15 mph    
Max Gust Speed 18 mph    
Visibility 10 miles    
Events Rain    
Averages and records for this station are not official NWS values.
T = Trace of Precipitation, MM = Missing Value Source: NWS Daily Summary

Daily Weather History Graph

Daily Weather History Graph

Search for Another Location

Airport:

Trip Planner

Search our weather history database for the weather conditions in past years. The results will help you decide how hot, cold, wet, or windy it might be!

Date:

Astronomy

Aug. 21, 2014 Rise Set
Actual Time 6:32 AM MDT 7:56 PM MDT
Civil Twilight 6:04 AM MDT 8:24 PM MDT
Nautical Twilight 5:31 AM MDT 8:57 PM MDT
Astronomical Twilight 4:56 AM MDT 9:31 PM MDT
Moon 3:06 AM MDT (8/21) 5:26 PM MDT (8/21)
Length of Visible Light 14h 19m
Length of Day
13h 24m
Waning Crescent, 13% of the Moon is Illuminated
Aug 21
Waning Crescent
Aug 25
New
Sep 2
First Quarter
Sep 8
Full
Sep 15
Last Quarter

Hourly Weather History & Observations

Time (MDT) Temp. Windchill Dew Point Humidity Pressure Visibility Wind Dir Wind Speed Gust Speed Precip Events Conditions
12:17 AM 50.0 °F - 44.6 °F 82% 30.37 in 10.0 mi ESE 5.8 mph - N/A   Scattered Clouds
12:57 AM 50.0 °F - 44.6 °F 82% 30.38 in 10.0 mi ESE 3.5 mph - N/A   Clear
1:37 AM 50.0 °F - 44.6 °F 82% 30.37 in 10.0 mi Calm Calm - N/A   Clear
1:57 AM 48.2 °F - 44.6 °F 87% 30.38 in 10.0 mi SE 3.5 mph - N/A   Clear
2:37 AM 48.2 °F - 44.6 °F 87% 30.37 in 10.0 mi SE 5.8 mph - N/A   Clear
2:57 AM 48.2 °F - 42.8 °F 82% 30.37 in 10.0 mi ESE 4.6 mph - N/A   Scattered Clouds
4:37 AM 46.4 °F 43.5 °F 42.8 °F 87% 30.38 in 10.0 mi ESE 5.8 mph - N/A   Clear
4:57 AM 46.4 °F 43.5 °F 41.0 °F 81% 30.38 in 10.0 mi ESE 5.8 mph - N/A   Clear
5:17 AM 46.4 °F - 41.0 °F 81% 30.38 in 10.0 mi Calm Calm - N/A   Clear
5:37 AM 46.4 °F 44.3 °F 41.0 °F 81% 30.37 in 10.0 mi ESE 4.6 mph - N/A   Clear
5:57 AM 46.4 °F 44.3 °F 39.2 °F 76% 30.37 in 10.0 mi SE 4.6 mph - N/A   Clear
6:17 AM 46.4 °F 43.5 °F 39.2 °F 76% 30.38 in 10.0 mi ESE 5.8 mph - N/A   Clear
6:37 AM 46.4 °F 43.5 °F 39.2 °F 76% 30.39 in 10.0 mi SE 5.8 mph - N/A   Clear
6:58 AM 46.4 °F 44.3 °F 39.2 °F 76% 30.39 in 10.0 mi SE 4.6 mph - N/A   Clear
7:57 AM 50.0 °F - 39.2 °F 66% 30.41 in 10.0 mi ESE 3.5 mph - N/A   Clear
8:57 AM 55.4 °F - 39.2 °F 54% 30.41 in 10.0 mi Calm Calm - N/A   Clear
9:17 AM 57.2 °F - 41.0 °F 55% 30.41 in 10.0 mi Calm Calm - N/A   Clear
9:37 AM 59.0 °F - 39.2 °F 48% 30.41 in 10.0 mi Calm Calm - N/A   Clear
10:17 AM 60.8 °F - 35.6 °F 39% 30.41 in 10.0 mi Calm Calm - N/A   Clear
10:37 AM 62.6 °F - 33.8 °F 34% 30.41 in 10.0 mi Calm Calm - N/A   Clear
11:17 AM 62.6 °F - 30.2 °F 30% 30.40 in 10.0 mi WSW 5.8 mph - N/A   Clear
11:37 AM 64.4 °F - 32.0 °F 30% 30.40 in 10.0 mi NNE 3.5 mph - N/A   Clear
11:57 AM 64.4 °F - 33.8 °F 32% 30.40 in 10.0 mi NW 5.8 mph - N/A   Clear
12:17 PM 66.2 °F - 33.8 °F 30% 30.40 in 10.0 mi Calm Calm - N/A   Clear
12:37 PM 66.2 °F - 32.0 °F 28% 30.40 in 10.0 mi SSW 3.5 mph - N/A   Clear
1:17 PM 64.4 °F - 33.8 °F 32% 30.39 in 10.0 mi WSW 4.6 mph - N/A   Mostly Cloudy
1:37 PM 66.2 °F - 33.8 °F 30% 30.39 in 10.0 mi WSW 8.1 mph - N/A   Overcast
1:57 PM 66.2 °F - 33.8 °F 30% 30.39 in 10.0 mi WSW 3.5 mph - N/A   Overcast
2:18 PM 68.0 °F - 35.6 °F 30% 30.38 in 10.0 mi West 9.2 mph - N/A   Mostly Cloudy
2:57 PM 66.2 °F - 35.6 °F 32% 30.38 in 10.0 mi West 9.2 mph - N/A   Mostly Cloudy
3:17 PM 66.2 °F - 35.6 °F 32% 30.38 in 10.0 mi West 8.1 mph - N/A   Overcast
3:57 PM 60.8 °F - 35.6 °F 39% 30.39 in 10.0 mi NW 4.6 mph - N/A Rain Light Rain
4:57 PM 57.2 °F - 42.8 °F 59% 30.40 in 10.0 mi East 12.7 mph 18.4 mph N/A   Overcast
5:17 PM 57.2 °F - 42.8 °F 59% 30.40 in 10.0 mi East 15.0 mph - N/A Rain Light Rain
5:37 PM 57.2 °F - 44.6 °F 63% 30.40 in 10.0 mi East 9.2 mph - N/A   Overcast
5:57 PM 57.2 °F - 42.8 °F 59% 30.40 in 10.0 mi ESE 8.1 mph - N/A   Overcast
6:17 PM 57.2 °F - 44.6 °F 63% 30.39 in 10.0 mi ESE 4.6 mph - N/A   Overcast
6:37 PM 57.2 °F - 44.6 °F 63% 30.38 in 10.0 mi SSE 4.6 mph - N/A   Mostly Cloudy
6:57 PM 57.2 °F - 42.8 °F 59% 30.39 in 10.0 mi South 4.6 mph - N/A   Overcast
7:19 PM 57.2 °F - 42.8 °F 59% 30.39 in 10.0 mi Calm Calm - N/A   Overcast
7:39 PM 57.2 °F - 44.6 °F 63% 30.39 in 10.0 mi Calm Calm - N/A   Mostly Cloudy
7:57 PM 57.2 °F - 44.6 °F 63% 30.39 in 10.0 mi SE 5.8 mph - N/A   Scattered Clouds
8:19 PM 57.2 °F - 46.4 °F 67% 30.39 in 10.0 mi SSE 3.5 mph - N/A   Mostly Cloudy
8:57 PM 55.4 °F - 46.4 °F 72% 30.40 in 10.0 mi SE 5.8 mph - N/A   Scattered Clouds
9:17 PM 55.4 °F - 46.4 °F 72% 30.41 in 10.0 mi ESE 4.6 mph - N/A   Mostly Cloudy
9:37 PM 55.4 °F - 46.4 °F 72% 30.41 in 10.0 mi SE 5.8 mph - N/A   Scattered Clouds
10:17 PM 53.6 °F - 46.4 °F 77% 30.41 in 10.0 mi SE 8.1 mph - N/A   Mostly Cloudy
10:37 PM 55.4 °F - 44.6 °F 67% 30.40 in 10.0 mi SSE 9.2 mph - N/A   Overcast
10:57 PM 55.4 °F - 44.6 °F 67% 30.39 in 10.0 mi SSE 4.6 mph - N/A   Mostly Cloudy
11:37 PM 55.4 °F - 44.6 °F 67% 30.39 in 10.0 mi Calm Calm - N/A   Overcast
11:58 PM 53.6 °F - 42.8 °F 67% 30.40 in 10.0 mi Calm Calm - N/A   Overcast